Home > Weather > Moncton > Past weeks

Flag for Canada Weather for the Past 2 Weeks in Moncton, New Brunswick, Canada

Now
23 °F

Light snow. Overcast.


Feels Like: 6 °F
Forecast: N/A
Wind: 28 mph from Northeast

Location: Moncton

Current Time: Feb 8, 2016 at 7:49:03 PM

Latest Report: Feb 8, 2016 at 7:00 PM


Visibility: 8 mi

Pressure: 29.85 "Hg

Humidity: 80%

Dew point: 18 °F

Location of MonctonLocation

Historic Weather in Moncton — Graph

°F

Moncton Temperature Yesterday

Maximum temperature yesterday: 36 °F (at 11:00 AM)
Minimum temperature yesterday: 12 °F (at 10:00 PM)
Average temperature yesterday: 26 °F

High & Low Weather Summary for the Past Weeks

 TemperatureHumidityPressure
High52 °F (Feb 1, 2:00 PM)100% (Jan 31, 8:00 AM)30.53 "Hg (Jan 31, 8:00 AM)
Low7 °F (Feb 8, 3:00 AM)31% (Jan 28, 1:00 PM)29.26 "Hg (Jan 29, 6:00 PM)
Average28 °F78%29.93 "Hg
* Reported Jan 24 6:00 PM — Feb 8 6:00 PM, Moncton, Weather by CustomWeather, © 2016

Note: Actual official high and low records may vary slightly from our data, if they occured in-between our weather recording intervals... More about our weather records

Advertising

Moncton Weather History for the Previous 24 Hours

 ConditionsComfort  
Time TempWeatherWind HumidityBarometerVisibility
6:00 PM
Mon, Feb 8
21 °FLight snow. Overcast.23 mph86%29.87 "Hg3 mi
5:00 PM21 °FLight snow. Mostly cloudy.26 mph80%29.91 "Hg1 mi
4:51 PM21 °FLight snow. Mostly cloudy.26 mph80%29.90 "Hg3 mi
4:00 PM21 °FLight snow. Low clouds.24 mph80%29.95 "Hg6 mi
3:00 PM21 °FLight snow. Overcast.30 mph74%29.96 "Hg3 mi
2:00 PM21 °FLight snow. More clouds than sun.31 mph74%29.98 "Hg3 mi
1:00 PM21 °FLight snow. Low clouds.24 mph74%30.01 "Hg2 mi
12:00 PM21 °FLight snow. Mostly cloudy.18 mph74%30.09 "Hg4 mi
11:00 AM21 °FLight snow. Mostly cloudy.28 mph68%30.09 "Hg3 mi
10:00 AM21 °FLight snow. More clouds than sun.23 mph68%30.14 "Hg4 mi
9:00 AM19 °FLight snow. More clouds than sun.22 mph73%30.17 "Hg6 mi
8:53 AM19 °FLight snow. More clouds than sun.24 mph73%30.17 "Hg6 mi
8:00 AM18 °FSnow flurries. Partly sunny.16 mph79%30.19 "Hg6 mi
7:00 AM9 °FSnow flurries. Partly cloudy.6 mph85%30.22 "Hg10 mi
6:00 AM7 °FSnow flurries. Passing clouds.13 mph78%30.22 "Hg8 mi
5:00 AM7 °FSnow flurries. Passing clouds.6 mph72%30.27 "Hg8 mi
4:00 AM7 °FSnow flurries. Passing clouds.2 mph66%30.28 "Hg15 mi
3:00 AM7 °FSnow flurries. Passing clouds.5 mph66%30.29 "Hg15 mi
2:00 AM9 °FPassing clouds.6 mph61%30.28 "Hg15 mi
1:00 AM10 °FPassing clouds.7 mph56%30.27 "Hg15 mi
12:00 AM10 °FPassing clouds.13 mph56%30.26 "Hg15 mi
11:00 PM
Sun, Feb 7
12 °FPassing clouds.13 mph52%30.26 "Hg15 mi
10:00 PM12 °FPassing clouds.10 mph52%30.27 "Hg15 mi
9:00 PM14 °FPassing clouds.14 mph48%30.25 "Hg15 mi
8:00 PM16 °FPassing clouds.13 mph45%30.24 "Hg15 mi
7:00 PM18 °FPassing clouds.18 mph45%30.22 "Hg15 mi
Weather by CustomWeather, © 2016

See weather overviewHow to use our weather pages